St. Cloud, MN

5:46 PM CST on November 18, 2019 (GMT -0600)
Saint Cloud Regional

Weather History for KSTC - April, 2019

Change the Weather History Date:

Tuesday, April 30, 2019

  Actual Average Record
Temperature  
Mean Temperature 38 °F 51 °F  
Max Temperature 42 °F 64 °F 91 °F (1934)
Min Temperature 34 °F 39 °F 21 °F (1966)
Degree Days  
Heating Degree Days 27 14  
Month to date heating degree days 674 618  
Since 1 July heating degree days 8798 8167  
Cooling Degree Days 0 0  
Month to date cooling degree days 0 2  
Year to date cooling degree days 0 2  
Moisture  
Dew Point 36 °F    
Average Humidity 78    
Maximum Humidity 93    
Minimum Humidity 62    
Precipitation  
Precipitation 0.15 in 0.10 in 1.43 in (1954)
Month to date precipitation 3.29 2.57  
Year to date precipitation 7.35 5.36  
Snow  
Snow 0.00 in 0.00 in 2.00 in (1909)
Month to date snowfall 8.3 3.0  
Since 1 July snowfall 68.5 45.7  
Snow Depth 0.00 in    
Sea Level Pressure  
Sea Level Pressure 30.21 in    
Wind  
Wind Speed 7 mph (ENE)    
Max Wind Speed 13 mph    
Max Gust Speed 18 mph    
Visibility 8 miles    
Events Rain    
T = Trace of Precipitation, MM = Missing Value Source: NWS Daily Summary

Daily Weather History Graph

Daily Weather History Graph

Search for Another Location

Airport or City:

Astronomy

Apr. 30, 2019 Rise Set
Actual Time 6:06 AM CDT 8:21 PM CDT
Civil Twilight 5:33 AM CDT 8:54 PM CDT
Nautical Twilight 4:53 AM CDT 9:35 PM CDT
Astronomical Twilight 4:07 AM CDT 10:20 PM CDT
Moon 4:41 AM CDT (4/30) 3:55 PM CDT (4/30)
Length of Visible Light 15h 20m
Length of Day
14h 15m
Waning Crescent, 17% of the Moon is Illuminated
Apr 30
Waning Crescent
May 4
New
May 11
First Quarter
May 18
Full
May 26
Last Quarter

Hourly Weather History & Observations

Time (CDT) Temp. Windchill Dew Point Humidity Pressure Visibility Wind Dir Wind Speed Gust Speed Precip Events Conditions
12:53 AM 41.0 °F 37.1 °F 34.0 °F 76% 30.26 in 10.0 mi NE 5.8 mph - N/A   Overcast
1:53 AM 39.0 °F 34.8 °F 34.0 °F 82% 30.26 in 10.0 mi ENE 5.8 mph - N/A   Overcast
2:13 AM 39.0 °F 33.4 °F 34.0 °F 82% 30.21 in 10.0 mi ENE 8.1 mph - N/A   Overcast
2:53 AM 37.9 °F 32.1 °F 34.0 °F 86% 30.26 in 10.0 mi ENE 8.1 mph - N/A   Mostly Cloudy
3:53 AM 37.0 °F 33.3 °F 34.0 °F 89% 30.27 in 10.0 mi ENE 4.6 mph - N/A   Mostly Cloudy
4:53 AM 36.0 °F 31.1 °F 33.1 °F 89% 30.29 in 10.0 mi ENE 5.8 mph - N/A   Partly Cloudy
5:53 AM 35.1 °F 30.1 °F 32.0 °F 89% 30.29 in 10.0 mi ENE 5.8 mph - N/A   Clear
6:18 AM 34.0 °F 28.0 °F 32.0 °F 92% 30.24 in 10.0 mi ENE 6.9 mph - N/A   Mostly Cloudy
6:53 AM 35.1 °F 27.9 °F 30.9 °F 85% 30.30 in 10.0 mi ENE 9.2 mph - N/A   Overcast
7:53 AM 35.1 °F 27.9 °F 30.0 °F 82% 30.30 in 10.0 mi East 9.2 mph - N/A   Overcast
8:23 AM 35.1 °F 30.1 °F 30.0 °F 82% 30.24 in 10.0 mi ENE 5.8 mph 16.1 mph N/A   Scattered Clouds
8:53 AM 36.0 °F 29.0 °F 30.0 °F 79% 30.30 in 10.0 mi NE 9.2 mph - N/A   Scattered Clouds
9:53 AM 37.0 °F 30.4 °F 30.0 °F 76% 30.30 in 10.0 mi NE 9.2 mph - N/A   Clear
10:53 AM 39.0 °F 32.8 °F 30.9 °F 73% 30.30 in 10.0 mi NE 9.2 mph - N/A   Mostly Cloudy
11:53 AM 42.1 °F 36.1 °F 30.9 °F 65% 30.25 in 10.0 mi NE 10.4 mph - N/A   Overcast
12:53 PM 41.0 °F 36.4 °F 30.9 °F 67% 30.28 in 10.0 mi East 6.9 mph - N/A   Overcast
1:51 PM 39.2 °F 34.2 °F 33.8 °F 81% 30.21 in 8.0 mi ENE 6.9 mph - 0.03 in Rain Light Rain
1:53 PM 39.0 °F 34.8 °F 34.0 °F 82% 30.27 in 8.0 mi ENE 5.8 mph - 0.03 in Rain Light Rain
2:29 PM 39.0 °F 33.4 °F 35.1 °F 86% 30.21 in 10.0 mi ENE 8.1 mph - 0.02 in Rain Light Rain
2:53 PM 39.0 °F 33.4 °F 35.1 °F 86% 30.27 in 10.0 mi ENE 8.1 mph - 0.03 in Rain Light Rain
3:02 PM 39.0 °F 34.0 °F 36.0 °F 89% 30.21 in 10.0 mi ENE 6.9 mph - 0.00 in Rain Light Rain
3:08 PM 39.0 °F 33.4 °F 35.1 °F 86% 30.21 in 10.0 mi ENE 8.1 mph - 0.00 in Rain Light Rain
3:28 PM 39.0 °F 33.4 °F 36.0 °F 89% 30.20 in 10.0 mi ENE 8.1 mph - 0.01 in Rain Light Rain
3:44 PM 39.0 °F 33.4 °F 36.0 °F 89% 30.20 in 6.0 mi ENE 8.1 mph - 0.01 in Rain Light Rain
3:53 PM 39.0 °F 34.0 °F 36.0 °F 89% 30.25 in 4.0 mi ENE 6.9 mph - 0.01 in Rain Light Rain
4:09 PM 39.0 °F 33.4 °F 36.0 °F 89% 30.18 in 4.0 mi ENE 8.1 mph - 0.01 in Rain Light Rain
4:53 PM 39.0 °F 34.0 °F 37.0 °F 93% 30.22 in 4.0 mi NE 6.9 mph - 0.02 in Rain Light Rain
5:21 PM 39.9 °F 35.8 °F 37.9 °F 93% 30.16 in 3.0 mi NE 5.8 mph - 0.01 in Rain Light Rain
5:32 PM 39.9 °F 35.8 °F 37.9 °F 93% 30.16 in 2.5 mi NE 5.8 mph - 0.01 in Rain Light Rain
5:53 PM 39.9 °F 35.1 °F 37.9 °F 93% 30.21 in 2.0 mi NE 6.9 mph - 0.02 in Rain Light Rain
6:17 PM 39.9 °F 35.1 °F 39.0 °F 97% 30.15 in 2.5 mi NE 6.9 mph - 0.01 in Rain Light Rain
6:31 PM 39.9 °F 34.5 °F 39.0 °F 97% 30.15 in 2.5 mi ENE 8.1 mph - 0.01 in Rain Light Rain
6:53 PM 41.0 °F 37.1 °F 39.0 °F 93% 30.20 in 3.0 mi ENE 5.8 mph - 0.02 in   Overcast
7:06 PM 41.0 °F 36.4 °F 39.0 °F 93% 30.15 in 4.0 mi ENE 6.9 mph - N/A   Overcast
7:26 PM 41.0 °F 36.4 °F 39.9 °F 96% 30.15 in 3.0 mi East 6.9 mph - N/A   Overcast
7:53 PM 41.0 °F 35.2 °F 39.9 °F 96% 30.19 in 3.0 mi East 9.2 mph - N/A   Overcast
8:26 PM 41.0 °F 36.4 °F 39.9 °F 96% 30.13 in 6.0 mi ENE 6.9 mph - N/A   Overcast
8:41 PM 41.0 °F 38.0 °F 39.9 °F 96% 30.13 in 8.0 mi ENE 4.6 mph - N/A   Overcast
8:53 PM 41.0 °F 36.4 °F 39.9 °F 96% 30.18 in 10.0 mi East 6.9 mph - N/A   Overcast
9:05 PM 42.1 °F 38.4 °F 39.9 °F 92% 30.13 in 10.0 mi East 5.8 mph - N/A   Overcast
9:18 PM 42.1 °F 37.7 °F 39.0 °F 89% 30.12 in 10.0 mi East 6.9 mph - N/A   Overcast
9:53 PM 41.0 °F 38.0 °F 39.0 °F 93% 30.17 in 10.0 mi ENE 4.6 mph - N/A   Overcast
10:12 PM 41.0 °F 37.1 °F 39.0 °F 93% 30.12 in 10.0 mi East 5.8 mph - N/A   Overcast
10:53 PM 41.0 °F 37.1 °F 39.0 °F 93% 30.16 in 10.0 mi ENE 5.8 mph - N/A   Overcast
11:22 PM 39.9 °F 35.8 °F 37.9 °F 93% 30.11 in 10.0 mi NE 5.8 mph - 0.00 in Rain Light Rain
11:42 PM 39.9 °F 36.7 °F 37.9 °F 93% 30.11 in 8.0 mi East 4.6 mph - 0.00 in Rain Light Rain
11:53 PM 39.0 °F 34.0 °F 37.9 °F 96% 30.17 in 9.0 mi NE 6.9 mph - 0.01 in Rain Light Rain
11:58 PM 39.0 °F 34.8 °F 37.9 °F 96% 30.11 in 8.0 mi NE 5.8 mph - 0.00 in Rain Light Rain